TimeEST,TemperatureF,Dew PointF,Humidity,Sea Level PressureIn,VisibilityMPH,Wind Direction,Wind SpeedMPH,Gust SpeedMPH,PrecipitationIn,Events,Conditions,WindDirDegrees,DateUTC
12:21 AM,37.0,33.1,86,29.64,8.0,WNW,19.6,24.2,0.01,Rain,Light Rain,300,2014-02-15 05:21:00
12:46 AM,36.0,32.0,86,29.66,9.0,WNW,15.0,-,0.01,Rain,Light Rain,300,2014-02-15 05:46:00
12:53 AM,35.1,30.9,85,29.68,6.0,WNW,16.1,-,0.02,Snow,Light Snow,300,2014-02-15 05:53:00
1:01 AM,35.1,30.9,85,29.68,2.5,WNW,16.1,23.0,0.00,Snow,Light Snow,300,2014-02-15 06:01:00
1:13 AM,34.0,30.0,85,29.69,1.8,NW,13.8,-,0.00,Snow,Light Snow,310,2014-02-15 06:13:00
1:21 AM,33.1,30.0,89,29.69,2.0,WNW,13.8,20.7,0.00,Snow,Light Snow,300,2014-02-15 06:21:00
1:31 AM,33.1,28.9,85,29.70,2.0,NW,20.7,29.9,0.00,Snow,Light Snow,310,2014-02-15 06:31:00
1:34 AM,33.1,28.9,85,29.70,1.2,NW,17.3,29.9,0.00,Snow,Light Snow,310,2014-02-15 06:34:00
1:42 AM,32.0,28.0,85,29.71,2.5,NW,12.7,28.8,0.00,Snow,Light Snow,310,2014-02-15 06:42:00
1:49 AM,32.0,28.4,87,29.72,9.0,NW,12.7,28.8,0.00,,Overcast,310,2014-02-15 06:49:00
1:53 AM,32.0,27.0,82,29.73,8.0,WNW,15.0,23.0,0.00,Snow,Light Snow,300,2014-02-15 06:53:00
2:53 AM,30.0,25.0,82,29.77,6.0,NW,16.1,24.2,0.00,Snow,Light Snow,310,2014-02-15 07:53:00
3:53 AM,26.1,21.0,81,29.82,10.0,NW,12.7,24.2,0.00,,Overcast,320,2014-02-15 08:53:00
4:53 AM,24.1,19.0,81,29.87,9.0,NNW,11.5,-,N/A,,Overcast,340,2014-02-15 09:53:00
5:53 AM,23.0,17.1,78,29.94,7.0,NW,16.1,25.3,N/A,,Overcast,310,2014-02-15 10:53:00
6:53 AM,21.9,16.0,78,29.99,5.0,WNW,13.8,-,N/A,,Haze,300,2014-02-15 11:53:00
7:43 AM,21.0,15.1,78,30.00,5.0,NW,10.4,-,0.00,Snow,Light Snow,310,2014-02-15 12:43:00
7:53 AM,21.0,15.1,78,30.04,3.0,WNW,9.2,-,0.00,Snow,Light Snow,300,2014-02-15 12:53:00
8:00 AM,21.0,15.1,78,30.02,2.0,WNW,12.7,-,0.00,Snow,Light Snow,300,2014-02-15 13:00:00
8:09 AM,21.0,14.0,74,30.02,1.5,NW,8.1,-,0.00,Snow,Light Snow,320,2014-02-15 13:09:00
8:26 AM,19.9,15.1,81,30.04,0.8,NW,10.4,-,0.00,Snow,Light Snow,310,2014-02-15 13:26:00
8:42 AM,21.0,15.1,78,30.04,1.5,NW,9.2,-,0.00,Snow,Light Snow,320,2014-02-15 13:42:00
8:53 AM,21.0,15.1,78,30.07,1.5,NNW,10.4,-,0.00,Snow,Light Snow,330,2014-02-15 13:53:00
9:26 AM,21.9,16.0,78,30.06,3.0,NW,6.9,-,0.00,Snow,Light Snow,310,2014-02-15 14:26:00
9:36 AM,21.9,15.1,75,30.06,9.0,WNW,9.2,-,0.00,,Overcast,290,2014-02-15 14:36:00
9:53 AM,21.9,15.1,75,30.10,9.0,WNW,9.2,-,0.00,,Overcast,290,2014-02-15 14:53:00
10:27 AM,23.0,16.0,74,30.07,2.5,WNW,6.9,-,0.00,Snow,Light Snow,290,2014-02-15 15:27:00
10:36 AM,23.0,15.1,72,30.07,3.0,Variable,5.8,-,0.00,Snow,Light Snow,0,2014-02-15 15:36:00
10:53 AM,24.1,15.1,69,30.10,5.0,NW,9.2,-,0.00,,Haze,310,2014-02-15 15:53:00
11:06 AM,23.0,15.1,72,30.09,6.0,Variable,4.6,-,0.00,,Haze,0,2014-02-15 16:06:00
11:23 AM,25.0,15.1,66,30.09,10.0,Variable,4.6,-,0.00,,Overcast,0,2014-02-15 16:23:00
11:53 AM,25.0,16.0,69,30.13,10.0,NNW,5.8,-,0.00,,Overcast,330,2014-02-15 16:53:00
12:53 PM,26.1,16.0,66,30.12,10.0,WNW,4.6,-,N/A,,Overcast,290,2014-02-15 17:53:00
1:53 PM,28.0,18.0,66,30.12,10.0,Variable,5.8,-,N/A,,Overcast,0,2014-02-15 18:53:00
2:53 PM,28.9,17.1,61,30.13,10.0,WNW,5.8,-,N/A,,Mostly Cloudy,300,2014-02-15 19:53:00
3:53 PM,28.9,16.0,58,30.13,10.0,SW,4.6,-,N/A,,Scattered Clouds,220,2014-02-15 20:53:00
4:53 PM,30.0,15.1,54,30.14,10.0,Variable,3.5,-,N/A,,Scattered Clouds,0,2014-02-15 21:53:00
5:53 PM,28.9,17.1,61,30.16,10.0,West,6.9,-,N/A,,Partly Cloudy,260,2014-02-15 22:53:00
6:53 PM,28.0,16.0,61,30.14,10.0,West,5.8,-,N/A,,Partly Cloudy,260,2014-02-15 23:53:00
7:53 PM,27.0,17.1,66,30.14,10.0,Calm,Calm,-,N/A,,Partly Cloudy,0,2014-02-16 00:53:00
8:53 PM,27.0,17.1,66,30.13,10.0,West,3.5,-,N/A,,Mostly Cloudy,260,2014-02-16 01:53:00
9:53 PM,27.0,17.1,66,30.12,10.0,Calm,Calm,-,N/A,,Overcast,0,2014-02-16 02:53:00
10:53 PM,28.0,19.0,69,30.12,9.0,Calm,Calm,-,N/A,,Overcast,0,2014-02-16 03:53:00
11:39 PM,27.0,21.0,78,30.07,1.8,SSW,3.5,-,0.00,Snow,Light Snow,200,2014-02-16 04:39:00
11:53 PM,26.1,21.0,81,30.10,1.5,Calm,Calm,-,0.01,Snow,Light Snow,0,2014-02-16 04:53:00